Wind_Speed
47 48 49 50 51 52 52 50 49 49 48 48 48 48 48 47 47 47 47 46 46 46 46 47 46 46 46 46 46 46 47 47 47 46 46 47 47 47 47 47 47 47 47
45 46 47 48 49 50 50 50 49 49 48 47 47 48 49 48 47 47 47 46 46 46 46 46 45 46 46 46 46 46 46 47 47 46 46 47 47 47 47 47 47 47 48
41 42 43 44 45 47 48 48 48 47 48 48 47 48 48 48 47 47 46 46 45 45 46 45 45 45 45 46 45 45 46 46 47 47 47 47 47 47 47 47 47 48 49
37 38 39 41 43 45 47 47 47 47 47 47 46 46 47 47 48 47 46 45 45 45 45 45 45 45 45 45 45 45 46 46 47 47 47 47 47 47 48 48 49 49 49
35 37 37 39 40 42 44 45 46 46 46 46 47 46 45 46 47 47 46 46 45 45 45 45 45 45 45 45 45 45 46 46 46 47 47 47 47 47 48 49 49 49 49
33 35 36 37 38 39 41 43 44 45 45 45 46 46 46 46 46 46 46 46 46 46 46 46 46 46 45 44 44 45 45 45 46 47 47 48 46 47 48 48 48 48 48
32 32 33 35 36 37 39 41 42 43 44 45 45 46 45 44 45 45 45 46 46 46 46 46 46 46 45 45 44 45 45 45 46 47 46 45 46 46 47 47 46 46 46
33 33 33 35 35 36 37 39 40 42 43 43 44 44 44 44 44 44 45 45 46 45 45 45 45 45 44 45 46 45 45 45 45 45 44 44 44 44 45 45 44 45 45
31 32 33 34 35 36 36 37 39 40 41 42 43 42 43 43 44 44 45 45 45 45 45 45 45 44 43 44 44 44 42 43 43 43 43 43 43 42 43 43 43 44 42
29 30 31 32 34 35 36 37 38 39 40 41 42 42 43 43 44 44 44 44 44 44 45 45 45 44 43 42 43 43 43 42 42 41 42 42 41 41 40 40 41 40 39
28 29 30 32 34 35 36 36 37 37 39 40 41 41 41 42 43 43 44 44 44 44 44 44 44 42 42 42 42 42 41 40 40 41 41 40 39 39 38 38 37 37 37
28 29 30 32 33 34 34 35 36 36 37 38 39 40 40 41 41 42 43 43 43 43 43 43 43 42 41 40 40 40 40 40 40 39 38 37 37 36 35 36 35 35 35
28 29 30 30 31 31 32 33 34 34 35 36 37 38 39 39 39 40 40 40 39 39 39 39 40 39 38 37 38 38 38 38 37 37 36 36 35 34 33 33 34 34 33
26 27 27 27 28 29 30 31 31 31 32 33 33 35 35 35 36 36 37 36 36 36 36 36 37 36 35 35 35 36 36 35 35 35 34 34 34 33 33 33 34 34 34
23 23 24 25 26 27 28 28 29 29 29 29 30 31 31 32 32 32 32 32 33 33 33 34 34 35 35 35 34 34 34 34 34 33 32 32 32 33 33 33 33 33 33
22 22 23 23 24 25 25 26 26 26 26 26 26 27 27 28 29 29 29 29 30 30 30 30 32 33 34 34 33 33 33 33 32 31 31 31 31 32 32 32 32 32 32
20 20 21 22 22 23 23 23 24 24 24 24 23 24 25 26 27 28 28 28 28 29 30 30 30 31 31 31 31 31 30 30 30 30 30 30 30 30 30 30 30 30 29
20 20 21 21 22 22 22 22 22 22 23 23 22 22 23 24 25 26 27 27 27 27 27 27 27 27 28 28 28 29 29 29 29 29 29 28 28 28 28 28 27 27 28
20 20 20 20 20 20 21 21 22 22 22 22 21 21 22 22 23 24 24 24 24 24 24 25 25 26 26 26 27 27 28 28 28 27 27 26 26 26 26 26 26 25 25
20 19 19 19 19 18 18 19 19 19 19 19 19 19 20 20 21 21 22 22 22 23 23 24 25 25 25 25 25 25 25 25 25 25 24 25 25 24 24 24 23 22 22
19 19 20 19 18 18 18 18 18 17 18 17 17 18 18 19 20 20 20 21 21 22 23 24 24 24 24 24 24 24 24 23 23 22 22 22 22 21 21 21 20 19 19
19 19 19 19 19 19 18 18 17 17 17 17 17 18 18 18 20 21 21 21 21 21 22 23 23 23 24 24 24 23 23 23 22 21 20 20 19 19 19 19 18 18 18
19 19 19 19 18 17 17 17 16 16 16 17 17 17 18 18 19 19 20 21 21 21 22 22 22 22 22 22 23 23 22 21 21 20 20 19 19 19 19 18 18 18 18
20 19 19 18 18 17 16 16 16 15 15 16 17 17 18 18 18 19 20 21 21 22 22 22 22 22 21 21 21 21 20 20 19 19 18 18 18 18 18 18 18 18 17
19 18 18 18 18 17 16 16 15 15 16 16 16 17 17 17 17 17 18 19 19 20 21 21 21 20 20 20 20 20 19 19 19 18 18 18 18 17 18 18 18 17 17
18 18 18 18 17 17 16 15 15 15 16 16 16 16 16 16 16 16 17 17 17 18 19 20 20 20 20 19 19 19 19 19 19 18 18 18 17 17 17 17 17 16 15
Wind_Direction
251 248 245 244 243 245 246 247 247 248 249 250 250 251 253 254 255 255 256 256 257 258 259 260 261 262 264 265 266 267 267 267 267 269 269 270 271 272 273 273 275 276 277
251 248 246 244 243 244 245 245 246 248 250 252 252 252 253 254 255 255 255 255 257 257 258 259 260 262 263 265 266 267 268 268 268 269 270 270 271 271 273 274 275 277 279
252 248 246 245 245 245 244 245 247 249 251 252 253 252 252 253 254 254 254 255 257 257 257 259 261 262 263 265 266 267 268 268 268 269 270 270 271 272 273 274 276 278 280
250 248 247 248 247 245 245 246 248 249 251 252 252 253 252 252 252 254 254 254 256 257 257 259 260 262 263 265 266 267 268 268 268 270 270 270 272 272 272 274 277 279 281
251 250 249 249 248 247 247 247 249 250 251 252 252 252 253 252 253 254 254 254 256 257 257 259 260 262 264 265 267 267 268 269 269 269 270 270 271 272 273 275 277 279 280
255 252 250 250 250 250 249 249 250 250 251 252 253 253 254 255 255 254 255 254 255 255 256 258 259 261 263 265 266 267 268 270 270 270 270 270 271 273 274 275 278 280 281
258 256 254 252 251 252 252 252 250 250 251 252 253 254 255 255 255 255 256 255 255 256 257 258 258 260 263 265 266 268 269 269 270 270 270 271 272 274 275 276 278 280 282
259 258 257 254 252 252 253 252 252 251 251 253 253 255 255 255 254 254 254 255 255 256 257 257 258 261 264 265 265 267 268 269 270 270 271 272 274 275 276 276 277 279 281
261 259 257 254 252 253 253 254 254 253 253 254 253 253 254 254 254 254 255 256 256 256 256 256 258 260 263 265 265 266 267 269 270 270 271 273 275 275 276 277 278 279 279
260 259 256 255 254 255 256 257 258 257 256 255 254 254 254 255 255 256 257 257 257 257 257 256 257 258 262 264 265 266 266 268 269 270 271 273 275 275 276 278 279 278 277
261 260 258 257 257 258 259 260 261 260 259 257 255 254 255 256 256 257 256 256 257 257 257 256 257 258 261 262 263 264 266 267 268 270 272 274 275 275 276 276 277 278 278
264 263 261 260 260 260 260 261 261 260 259 258 257 256 257 257 256 256 256 257 257 257 257 256 257 258 260 261 261 262 264 265 267 269 271 273 273 274 274 274 275 277 279
265 264 263 263 262 262 261 261 261 260 260 260 259 258 258 257 256 255 254 255 255 255 256 257 258 258 258 259 260 262 263 264 266 268 270 269 270 270 271 273 276 277 277
268 266 264 264 263 263 263 262 262 262 261 260 260 260 258 256 254 253 253 252 252 253 254 256 256 255 256 258 259 261 263 265 266 266 267 268 268 269 271 274 277 277 277
269 269 268 266 265 264 264 264 263 263 263 262 261 259 255 252 251 251 251 251 252 253 254 254 253 253 254 257 260 261 262 264 266 267 267 268 268 270 273 276 278 278 277
273 272 271 269 269 268 267 266 266 266 265 265 263 258 253 250 249 249 249 249 250 251 251 252 253 254 255 257 260 261 262 264 264 265 268 269 270 272 273 275 276 277 277
273 274 272 270 271 271 270 268 267 266 266 266 265 258 254 250 248 247 247 249 250 250 250 251 252 253 255 257 260 260 260 262 263 265 267 269 270 271 272 273 273 276 277
274 275 274 273 272 271 271 271 270 268 267 266 263 256 253 251 248 246 246 246 248 249 249 249 252 254 256 259 260 260 260 261 262 263 265 266 267 269 272 273 273 275 277
277 276 276 274 274 273 272 270 269 270 268 264 259 255 252 250 247 246 246 247 249 249 248 250 252 255 257 259 260 261 261 261 261 262 263 264 266 268 270 272 273 276 278
279 278 278 277 276 275 274 274 272 270 266 263 258 255 252 250 247 247 247 249 251 250 249 251 252 254 256 257 259 261 261 260 260 261 263 264 266 268 269 270 272 275 276
280 278 279 278 277 277 276 275 274 270 265 259 256 255 253 249 248 249 250 252 253 253 252 252 253 255 256 256 258 259 259 258 260 263 265 266 266 268 270 271 274 275 275
279 279 278 277 275 275 274 273 270 266 262 258 255 254 251 250 252 251 252 254 254 254 254 254 256 256 256 256 256 257 257 258 259 260 263 265 265 268 269 271 275 277 278
279 278 277 276 276 276 273 271 269 265 260 258 256 254 253 256 257 255 255 257 257 255 254 256 256 255 255 255 255 255 255 255 257 260 261 262 264 267 269 272 275 278 279
279 277 275 274 274 276 275 271 266 262 259 258 257 256 256 259 259 259 258 258 257 254 253 254 255 254 254 255 255 253 251 252 255 258 260 262 263 266 269 272 273 274 276
277 274 272 271 273 274 273 268 262 257 259 261 259 257 257 258 260 261 260 260 257 254 252 253 253 253 254 255 254 252 250 251 253 255 257 258 260 264 267 269 269 270 273
276 272 269 269 269 270 270 267 261 258 260 261 260 259 259 259 260 260 259 259 257 254 253 253 254 255 255 254 253 252 251 251 253 254 255 256 258 261 263 265 267 269 271
Height
5593 5596 5599 5604 5608 5613 5617 5621 5625 5628 5631 5633 5636 5639 5641 5643 5645 5647 5650 5652 5653 5655 5657 5659 5660 5662 5663 5663 5664 5664 5664 5665 5666 5668 5667 5666 5665 5664 5664 5663 5661 5660 5659
5581 5583 5587 5591 5595 5600 5604 5608 5612 5615 5618 5621 5623 5626 5629 5631 5633 5635 5637 5639 5641 5643 5645 5647 5648 5649 5650 5651 5652 5652 5652 5653 5653 5654 5655 5654 5653 5652 5651 5651 5649 5648 5646
5568 5571 5575 5579 5584 5588 5592 5596 5599 5602 5605 5608 5611 5614 5616 5618 5621 5623 5625 5627 5629 5631 5633 5635 5636 5637 5638 5639 5639 5640 5640 5640 5640 5641 5642 5641 5640 5640 5639 5638 5637 5635 5633
5558 5561 5565 5568 5572 5576 5580 5583 5586 5590 5593 5596 5599 5601 5603 5605 5608 5610 5612 5615 5617 5619 5621 5622 5624 5625 5626 5627 5627 5628 5628 5628 5628 5628 5629 5629 5628 5627 5626 5625 5624 5623 5621
5549 5552 5554 5557 5561 5564 5568 5571 5575 5578 5581 5583 5586 5589 5591 5594 5596 5598 5600 5602 5605 5607 5609 5610 5612 5613 5614 5614 5615 5616 5615 5615 5615 5615 5616 5615 5615 5614 5614 5613 5612 5610 5608
5541 5543 5545 5548 5551 5554 5557 5560 5563 5566 5569 5571 5574 5577 5579 5581 5583 5585 5587 5590 5592 5595 5597 5598 5600 5601 5602 5602 5603 5603 5603 5603 5603 5602 5603 5603 5603 5602 5601 5600 5599 5597 5596
5533 5535 5536 5539 5542 5544 5547 5549 5552 5554 5557 5560 5562 5564 5567 5569 5570 5573 5575 5577 5580 5582 5584 5586 5587 5588 5589 5590 5590 5590 5590 5590 5590 5590 5590 5590 5590 5589 5588 5588 5586 5584 5583
5525 5526 5528 5530 5532 5534 5537 5539 5541 5543 5546 5548 5550 5552 5554 5556 5558 5560 5562 5564 5567 5570 5572 5573 5574 5576 5577 5577 5578 5578 5578 5578 5578 5577 5578 5578 5577 5576 5576 5575 5574 5572 5571
5517 5518 5519 5521 5523 5525 5527 5529 5531 5532 5534 5536 5538 5540 5542 5544 5546 5548 5550 5552 5554 5557 5559 5560 5562 5563 5564 5564 5566 5566 5567 5567 5566 5566 5566 5566 5565 5565 5564 5563 5562 5560 5559
5509 5510 5511 5512 5514 5516 5518 5519 5520 5522 5523 5524 5526 5528 5530 5532 5534 5536 5537 5539 5542 5544 5546 5548 5549 5550 5552 5552 5553 5554 5555 5556 5555 5555 5555 5555 5554 5553 5553 5552 5551 5549 5548
5501 5502 5503 5504 5505 5507 5508 5509 5510 5511 5512 5513 5515 5517 5519 5521 5522 5523 5525 5526 5529 5531 5533 5536 5537 5538 5539 5541 5542 5543 5544 5544 5544 5544 5544 5544 5544 5543 5543 5542 5540 5539 5538
5494 5494 5494 5495 5496 5497 5498 5499 5500 5500 5501 5502 5504 5506 5507 5508 5510 5511 5512 5514 5516 5519 5521 5523 5525 5527 5528 5529 5530 5532 5532 5533 5533 5534 5534 5533 5533 5533 5533 5532 5531 5529 5528
5486 5486 5486 5486 5486 5487 5488 5489 5489 5490 5491 5492 5493 5494 5496 5496 5498 5499 5501 5503 5505 5507 5509 5512 5514 5515 5517 5518 5520 5521 5522 5522 5523 5523 5524 5524 5523 5523 5523 5522 5521 5520 5519
5478 5478 5478 5478 5478 5478 5478 5479 5479 5480 5480 5481 5482 5483 5485 5486 5487 5489 5490 5492 5494 5496 5498 5500 5503 5504 5506 5507 5509 5511 5512 5513 5513 5514 5514 5514 5514 5514 5514 5513 5512 5511 5510
5471 5471 5470 5470 5470 5470 5470 5470 5470 5471 5471 5472 5472 5473 5474 5476 5478 5479 5481 5483 5485 5487 5489 5490 5492 5494 5496 5498 5500 5501 5502 5503 5504 5504 5505 5505 5505 5505 5505 5504 5503 5502 5501
5465 5464 5463 5463 5463 5463 5462 5462 5462 5462 5462 5462 5463 5464 5465 5467 5469 5471 5472 5475 5476 5478 5480 5481 5483 5485 5488 5489 5491 5492 5493 5494 5494 5495 5496 5496 5496 5496 5495 5494 5494 5493 5492
5458 5458 5457 5456 5456 5455 5455 5455 5455 5455 5454 5454 5455 5456 5458 5460 5461 5463 5465 5467 5468 5470 5471 5473 5475 5477 5479 5481 5482 5483 5484 5485 5486 5487 5487 5487 5487 5487 5486 5486 5485 5484 5483
5452 5451 5451 5450 5449 5448 5448 5448 5448 5448 5448 5448 5448 5449 5451 5453 5454 5456 5458 5459 5460 5462 5464 5466 5468 5469 5471 5473 5474 5475 5476 5476 5477 5478 5478 5478 5478 5478 5478 5477 5476 5476 5475
5446 5445 5444 5443 5442 5442 5441 5441 5441 5441 5441 5442 5442 5443 5444 5446 5447 5449 5450 5452 5453 5455 5457 5458 5460 5462 5463 5465 5466 5467 5467 5468 5469 5469 5470 5470 5470 5470 5470 5469 5468 5468 5467
5440 5439 5438 5437 5436 5435 5435 5435 5435 5435 5435 5436 5436 5438 5438 5439 5441 5443 5444 5446 5447 5449 5450 5452 5453 5455 5456 5457 5458 5459 5460 5460 5461 5461 5462 5462 5462 5462 5462 5461 5461 5460 5459
5434 5433 5432 5431 5430 5430 5429 5429 5429 5429 5429 5430 5431 5432 5433 5434 5436 5437 5438 5439 5441 5442 5443 5445 5446 5447 5449 5450 5451 5452 5452 5453 5454 5455 5455 5455 5455 5455 5455 5455 5454 5454 5453
5428 5427 5426 5425 5425 5424 5424 5423 5423 5423 5424 5425 5426 5426 5428 5429 5430 5431 5432 5433 5434 5435 5436 5438 5439 5440 5441 5442 5444 5444 5445 5446 5447 5448 5449 5449 5449 5449 5449 5449 5448 5448 5447
5422 5421 5420 5419 5419 5418 5418 5418 5418 5418 5418 5419 5420 5421 5422 5423 5424 5425 5426 5427 5428 5429 5430 5431 5432 5433 5434 5435 5436 5438 5439 5440 5441 5442 5442 5443 5443 5443 5443 5443 5442 5442 5441
5415 5414 5414 5413 5413 5413 5413 5412 5412 5413 5413 5414 5415 5416 5417 5418 5418 5419 5420 5421 5421 5423 5424 5425 5426 5427 5428 5429 5430 5431 5432 5433 5434 5435 5436 5436 5437 5437 5437 5437 5437 5437 5436
5409 5408 5408 5408 5408 5407 5407 5407 5407 5408 5408 5409 5410 5410 5411 5412 5413 5413 5414 5414 5415 5416 5417 5419 5420 5421 5422 5423 5424 5425 5426 5427 5428 5429 5430 5430 5431 5431 5431 5431 5431 5431 5431
5403 5402 5402 5402 5402 5402 5402 5402 5402 5402 5403 5404 5405 5405 5406 5407 5407 5408 5408 5409 5409 5411 5412 5413 5414 5415 5416 5417 5418 5419 5420 5421 5422 5423 5423 5424 5425 5425 5426 5426 5426 5426 5426